Simultaneous Nadir Overpasses (SNOs) Predictions

Prediction of SNOs between LANDSAT-8 and METOP-A Satellite Orbit:

Table of predicted SNOs for the next 14.0 days since TLE Epoch: 12/13/2014
Index Date (LANDSAT-8) Time (LANDSAT-8) Lat,Lon (LANDSAT-8) SZA (LANDSAT-8 ) Date (METOP-A) Time (METOP-A) Lat,Lon (METOP-A) SZA (METOP-A ) Distance(km) Time Diff (sec)
1 12/14/2014 01:20:40 81.10,-160.81 106.30 12/14/2014 01:19:36 81.10,-160.70 106.29 2.15 64
2 12/14/2014 02:10:06 -81.12, 7.15 73.66 12/14/2014 02:10:16 -81.12, 7.07 73.66 1.34 10
3 12/16/2014 20:54:53 81.11, -94.12 106.44 12/16/2014 20:53:57 81.11, -94.03 106.43 1.64 56
4 12/16/2014 21:44:19 -81.13, 73.85 73.51 12/16/2014 21:44:37 -81.13, 73.75 73.52 1.91 18
5 12/19/2014 16:29:06 81.12, -27.61 106.50 12/19/2014 16:28:17 81.12, -27.43 106.50 3.09 49
6 12/19/2014 17:18:33 -81.12, 140.02 73.51 12/19/2014 17:18:58 -81.12, 139.99 73.49 0.74 25
7 12/22/2014 12:03:21 81.11, 38.73 106.47 12/22/2014 12:02:39 81.11, 38.72 106.45 0.21 42
8 12/22/2014 12:52:47 -81.13,-153.27 73.48 12/22/2014 12:53:18 -81.14,-153.10 73.45 2.96 31
9 12/25/2014 07:37:36 81.12, 105.25 106.41 12/25/2014 07:37:00 81.11, 105.18 106.38 1.38 36




NCC Satellite Simultaneous Nadir Overpasses (SNOs) Prediction Service
